Location: アルンシュタイン
(50.0000°N, 10.0000°E)
Time: 17:42:03
(UTC+02:00)

Tiros 1 - All Passes

Search period start: 11 September 2024 00:00
Search period end: 21 September 2024 00:00
Orbit: 623 x 655 km, 48.4° (Epoch: 10 September)

Date Brightness Start Highest point End Pass type
(mag) Time Alt. Az. Time Alt. Az. Time Alt. Az.
11 Sep - 01:05:33 10° WSW 01:08:21 16° SW 01:11:10 10° S night (unlit)
11 Sep - 18:41:02 10° SW 18:45:11 34° SSE 18:49:23 10° E daylight
11 Sep - 20:22:15 10° WSW 20:26:51 69° S 20:31:30 10° E visible
11 Sep - 22:04:10 10° W 22:08:46 65° SSW 22:13:24 10° ESE visible
11 Sep - 23:46:18 10° W 23:50:22 30° SSW 23:54:26 10° SSE visible
12 Sep - 17:23:57 10° S 17:27:09 19° SE 17:30:23 10° E daylight
12 Sep - 19:04:02 10° SW 19:08:30 51° SSE 19:13:00 10° E daylight
12 Sep - 20:45:43 10° W 20:50:20 74° S 20:55:00 10° E visible
12 Sep - 22:27:40 10° W 22:32:09 49° SSW 22:36:40 10° SE visible
13 Sep - 00:10:21 10° W 00:13:29 18° SW 00:16:37 10° S visible
13 Sep - 17:46:14 10° SSW 17:50:16 31° SSE 17:54:21 10° E daylight
13 Sep - 19:27:19 10° WSW 19:31:53 67° S 19:36:30 10° E daylight
13 Sep - 21:09:11 10° W 21:13:47 68° S 21:18:25 10° ESE visible
13 Sep - 22:51:17 10° W 22:55:26 33° SSW 22:59:37 10° SE visible
14 Sep - 16:29:22 10° S 16:32:15 17° SE 16:35:10 10° E daylight
14 Sep - 18:09:07 10° SW 18:13:32 47° SSE 18:17:58 10° E daylight
14 Sep - 19:50:44 10° W 19:55:20 74° S 19:59:59 10° E daylight
14 Sep - 21:32:40 10° W 21:37:11 53° SSW 21:41:43 10° ESE visible
14 Sep - 23:15:11 10° W 23:18:34 20° SW 23:21:58 10° S visible
15 Sep - 16:51:25 10° SSW 16:55:20 28° SSE 16:59:16 10° E daylight
15 Sep - 18:32:20 10° WSW 18:36:53 64° SSE 18:41:28 10° E daylight
15 Sep - 20:14:11 10° W 20:18:47 70° S 20:23:24 10° ESE visible
15 Sep - 21:56:14 10° W 22:00:28 36° SSW 22:04:44 10° SE visible
15 Sep - 23:40:29 10° WSW 23:41:32 11° SW 23:42:35 10° SSW visible
16 Sep - 15:34:51 10° S 15:37:21 15° SE 15:39:50 10° ESE daylight
16 Sep - 17:14:12 10° SW 17:18:32 44° SSE 17:22:55 10° E daylight
16 Sep - 18:55:43 10° W 19:00:18 73° S 19:04:56 10° E daylight
16 Sep - 20:37:39 10° W 20:42:10 56° SSW 20:46:44 10° ESE visible
16 Sep - 22:20:02 10° W 22:23:37 22° SW 22:27:13 10° SSE visible
17 Sep - 15:56:37 10° SSW 16:00:21 25° SSE 16:04:08 10° E daylight
17 Sep - 17:37:20 10° WSW 17:41:51 60° SSE 17:46:24 10° E daylight
17 Sep - 19:19:09 10° W 19:23:44 72° S 19:28:21 10° ESE daylight
17 Sep - 21:01:09 10° W 21:05:28 39° SSW 21:09:48 10° SE visible
17 Sep - 22:44:40 10° WSW 22:46:35 12° SW 22:48:31 10° SSW visible
18 Sep - 14:40:26 10° SSE 14:42:23 13° SE 14:44:21 10° ESE daylight
18 Sep - 16:19:15 10° SW 16:23:31 40° SSE 16:27:49 10° E daylight
18 Sep - 18:00:40 10° WSW 18:05:14 72° S 18:09:51 10° E daylight
18 Sep - 19:42:35 10° W 19:47:08 60° SSW 19:51:41 10° ESE daylight
18 Sep - 21:24:51 10° W 21:28:37 25° SSW 21:32:24 10° SSE visible
19 Sep - 15:01:47 10° SSW 15:05:21 23° SE 15:08:56 10° E daylight
19 Sep - 16:42:18 10° WSW 16:46:47 57° SSE 16:51:19 10° E daylight
19 Sep - 18:24:04 10° W 18:28:39 73° S 18:33:16 10° E daylight
19 Sep - 20:06:03 10° W 20:10:25 43° SSW 20:14:48 10° SE visible
19 Sep - 21:49:09 10° WSW 21:51:37 14° SW 21:54:04 10° S visible
20 Sep - 13:46:19 10° SSE 13:47:25 11° SE 13:48:30 10° ESE daylight
20 Sep - 15:24:17 10° SW 15:28:28 36° SSE 15:32:41 10° E daylight
20 Sep - 17:05:35 10° WSW 17:10:09 70° S 17:14:45 10° E daylight
20 Sep - 18:47:29 10° W 18:52:02 63° SSW 18:56:36 10° ESE daylight
20 Sep - 20:29:40 10° W 20:33:35 28° SSW 20:37:30 10° SSE visible
